When you browse on this site, cookies collect data to enhance your experience and personalize the content and advertising you see.
Visit our Privacy Policy to learn more. By continuing to use the site, you agree to this use of cookies and data.
  • In United Kingdom
  • List of Countries
  • For 7 days
  • Water Temperature
  • Weather Map
  • Weather Widgets
  • user-avatar
    Login

    Hourly Weather Mardan

    Today, 20 September, Friday

    Time Temperature Precipitation Wind Pressure Humidity
    00:00 +29°C° 1.3 mm 1 mps 731 mmHg 62%
    01:00 +28°C° 1.3 mm 1 mps 731 mmHg 67%
    02:00 +27°C° 1.3 mm 1 mps 730 mmHg 71%
    03:00 +27°C° 1.1 mm 2 mps 730 mmHg 74%
    04:00 +26°C° 1.1 mm 2 mps 730 mmHg 77%
    05:00 +26°C° 1.1 mm 2 mps 731 mmHg 79%
    06:00 +27°C° 0.8 mm 2 mps 731 mmHg 77%
    07:00 +27°C° 0.8 mm 2 mps 731 mmHg 75%
    08:00 +28°C° 0.8 mm 2 mps 732 mmHg 73%
    09:00 +29°C° 0.1 mm 2 mps 732 mmHg 69%
    10:00 +30°C° 0.1 mm 2 mps 732 mmHg 65%
    11:00 +31°C° 0.1 mm 2 mps 732 mmHg 61%
    12:00 +32°C° 0 mm 2 mps 731 mmHg 57%
    13:00 +34°C° 0 mm 2 mps 730 mmHg 53%
    14:00 +34°C° 0 mm 1 mps 730 mmHg 49%
    15:00 +35°C° 0 mm 2 mps 729 mmHg 49%
    16:00 +35°C° 0 mm 2 mps 729 mmHg 50%
    17:00 +35°C° 0 mm 2 mps 729 mmHg 51%
    18:00 +34°C° 0 mm 2 mps 729 mmHg 53%
    19:00 +31°C° 0 mm 2 mps 729 mmHg 56%
    20:00 +30°C° 0 mm 2 mps 730 mmHg 59%
    21:00 +30°C° 0 mm 2 mps 730 mmHg 60%
    22:00 +30°C° 0 mm 1 mps 730 mmHg 61%
    23:00 +29°C° 0 mm 1 mps 730 mmHg 62%

    Tomorrow, 21 September, Saturday

    Time Temperature Precipitation Wind Pressure Humidity
    00:00 +29°C° 0 mm 1 mps 729 mmHg 62%
    01:00 +29°C° 0 mm 1 mps 729 mmHg 63%
    02:00 +28°C° 0 mm 1 mps 729 mmHg 63%
    03:00 +28°C° 0.2 mm 1 mps 729 mmHg 64%
    04:00 +28°C° 0.2 mm 2 mps 729 mmHg 65%
    05:00 +27°C° 0.2 mm 2 mps 729 mmHg 66%
    06:00 +28°C° 0.2 mm 2 mps 730 mmHg 64%
    07:00 +29°C° 0.2 mm 1 mps 730 mmHg 63%
    08:00 +29°C° 0.2 mm 1 mps 730 mmHg 61%
    09:00 +31°C° 0 mm 1 mps 731 mmHg 58%
    10:00 +32°C° 0 mm 2 mps 731 mmHg 54%
    11:00 +34°C° 0 mm 2 mps 731 mmHg 51%
    12:00 +34°C° 0 mm 1 mps 730 mmHg 48%
    13:00 +35°C° 0 mm 1 mps 730 mmHg 46%
    14:00 +35°C° 0 mm 1 mps 729 mmHg 43%
    15:00 +35°C° 0 mm 1 mps 729 mmHg 44%
    16:00 +35°C° 0 mm 1 mps 728 mmHg 44%
    17:00 +35°C° 0 mm 1 mps 728 mmHg 45%
    18:00 +34°C° 0 mm 1 mps 728 mmHg 47%
    19:00 +32°C° 0 mm 2 mps 729 mmHg 49%
    20:00 +31°C° 0 mm 2 mps 729 mmHg 52%
    21:00 +31°C° 0 mm 1 mps 729 mmHg 53%
    22:00 +30°C° 0 mm 1 mps 729 mmHg 55%
    23:00 +30°C° 0 mm 1 mps 729 mmHg 56%

    Day after tomorrow, 22 September, Sunday

    Time Temperature Precipitation Wind Pressure Humidity
    00:00 +29°C° 0 mm 1 mps 729 mmHg 57%
    01:00 +29°C° 0 mm 1 mps 730 mmHg 58%
    02:00 +29°C° 0 mm 2 mps 730 mmHg 58%
    03:00 +29°C° 0 mm 2 mps 730 mmHg 59%
    04:00 +28°C° 0 mm 2 mps 730 mmHg 60%
    05:00 +28°C° 0 mm 2 mps 730 mmHg 60%
    06:00 +29°C° 0 mm 1 mps 731 mmHg 58%
    07:00 +30°C° 0 mm 1 mps 731 mmHg 56%
    08:00 +31°C° 0 mm 1 mps 732 mmHg 54%
    09:00 +32°C° 0 mm 1 mps 732 mmHg 51%
    10:00 +33°C° 0 mm 1 mps 732 mmHg 47%
    11:00 +35°C° 0 mm 2 mps 732 mmHg 44%
    12:00 +35°C° 0 mm 1 mps 731 mmHg 42%
    13:00 +36°C° 0 mm 1 mps 731 mmHg 40%
    14:00 +37°C° 0 mm 1 mps 730 mmHg 38%
    15:00 +37°C° 0 mm 1 mps 730 mmHg 40%
    16:00 +36°C° 0 mm 1 mps 730 mmHg 41%
    17:00 +36°C° 0 mm 1 mps 729 mmHg 43%
    18:00 +35°C° 0 mm 1 mps 730 mmHg 45%
    19:00 +34°C° 0 mm 2 mps 730 mmHg 47%
    20:00 +32°C° 0 mm 2 mps 730 mmHg 50%
    21:00 +31°C° 0 mm 1 mps 730 mmHg 52%
    22:00 +31°C° 0 mm 1 mps 730 mmHg 53%
    23:00 +30°C° 0 mm 1 mps 730 mmHg 55%

    23 September, Monday

    Time Temperature Precipitation Wind Pressure Humidity
    00:00 +30°C° 0 mm 1 mps 730 mmHg 56%
    01:00 +30°C° 0 mm 1 mps 731 mmHg 57%
    02:00 +29°C° 0 mm 2 mps 731 mmHg 58%
    03:00 +29°C° 0 mm 2 mps 731 mmHg 58%
    04:00 +29°C° 0 mm 2 mps 731 mmHg 59%
    05:00 +29°C° 0 mm 2 mps 731 mmHg 60%
    06:00 +29°C° 0 mm 2 mps 731 mmHg 57%
    07:00 +30°C° 0 mm 1 mps 732 mmHg 55%
    08:00 +31°C° 0 mm 1 mps 732 mmHg 53%
    09:00 +33°C° 0 mm 1 mps 732 mmHg 50%
    10:00 +34°C° 0 mm 1 mps 732 mmHg 46%
    11:00 +35°C° 0 mm 1 mps 732 mmHg 43%
    12:00 +36°C° 0 mm 1 mps 732 mmHg 41%
    13:00 +37°C° 0 mm 1 mps 731 mmHg 39%
    14:00 +37°C° 0 mm 1 mps 730 mmHg 37%
    15:00 +37°C° 0 mm 1 mps 730 mmHg 38%
    16:00 +37°C° 0 mm 1 mps 730 mmHg 39%
    17:00 +37°C° 0 mm 1 mps 730 mmHg 41%
    18:00 +35°C° 0 mm 1 mps 730 mmHg 43%
    19:00 +35°C° 0 mm 2 mps 730 mmHg 45%
    20:00 +34°C° 0 mm 2 mps 730 mmHg 47%
    21:00 +32°C° 0 mm 2 mps 731 mmHg 49%
    22:00 +32°C° 0 mm 2 mps 731 mmHg 51%
    23:00 +31°C° 0 mm 2 mps 731 mmHg 53%

    24 September, Tuesday

    Time Temperature Precipitation Wind Pressure Humidity
    00:00 +31°C° 0 mm 1 mps 731 mmHg 54%
    01:00 +30°C° 0 mm 1 mps 730 mmHg 55%
    02:00 +30°C° 0 mm 1 mps 730 mmHg 56%
    03:00 +30°C° 0 mm 1 mps 730 mmHg 57%
    04:00 +29°C° 0 mm 1 mps 731 mmHg 58%
    05:00 +29°C° 0 mm 1 mps 731 mmHg 59%
    06:00 +30°C° 0 mm 1 mps 731 mmHg 57%
    07:00 +31°C° 0 mm 1 mps 731 mmHg 55%
    08:00 +32°C° 0 mm 1 mps 732 mmHg 52%
    09:00 +33°C° 0 mm 1 mps 732 mmHg 49%
    10:00 +35°C° 0 mm 2 mps 732 mmHg 45%
    11:00 +37°C° 0 mm 2 mps 732 mmHg 41%
    12:00 +38°C° 0 mm 2 mps 732 mmHg 39%
    13:00 +37°C° 0 mm 1 mps 731 mmHg 37%
    14:00 +39°C° 0 mm 1 mps 731 mmHg 35%
    15:00 +39°C° 0 mm 2 mps 730 mmHg 36%
    16:00 +39°C° 0 mm 2 mps 730 mmHg 37%
    17:00 +38°C° 0 mm 2 mps 730 mmHg 38%
    18:00 +37°C° 0 mm 2 mps 730 mmHg 41%
    19:00 +36°C° 0 mm 2 mps 730 mmHg 43%
    20:00 +34°C° 0 mm 2 mps 731 mmHg 45%
    21:00 +34°C° 0 mm 2 mps 731 mmHg 46%
    22:00 +32°C° 0 mm 2 mps 731 mmHg 48%
    23:00 +32°C° 0 mm 1 mps 731 mmHg 50%

    25 September, Wednesday

    Time Temperature Precipitation Wind Pressure Humidity
    00:00 +31°C° 0 mm 1 mps 731 mmHg 51%
    01:00 +31°C° 0 mm 1 mps 731 mmHg 52%
    02:00 +30°C° 0 mm 1 mps 731 mmHg 53%
    03:00 +30°C° 0 mm 2 mps 731 mmHg 54%
    04:00 +30°C° 0 mm 2 mps 731 mmHg 54%
    05:00 +30°C° 0 mm 2 mps 731 mmHg 55%
    06:00 +30°C° 0 mm 2 mps 732 mmHg 53%
    07:00 +31°C° 0 mm 1 mps 732 mmHg 52%
    08:00 +32°C° 0 mm 1 mps 733 mmHg 50%
    09:00 +35°C° 0 mm 2 mps 733 mmHg 46%
    10:00 +36°C° 0 mm 2 mps 733 mmHg 43%
    11:00 +38°C° 0 mm 2 mps 733 mmHg 39%
    12:00 +38°C° 0 mm 2 mps 733 mmHg 38%
    13:00 +39°C° 0 mm 2 mps 732 mmHg 36%
    14:00 +40°C° 0 mm 2 mps 732 mmHg 34%
    15:00 +40°C° 0 mm 2 mps 732 mmHg 35%
    16:00 +39°C° 0 mm 2 mps 732 mmHg 36%
    17:00 +39°C° 0 mm 2 mps 731 mmHg 37%
    18:00 +38°C° 0 mm 2 mps 732 mmHg 39%
    19:00 +36°C° 0 mm 2 mps 732 mmHg 41%
    20:00 +35°C° 0 mm 3 mps 732 mmHg 43%
    21:00 +34°C° 0 mm 2 mps 733 mmHg 45%
    22:00 +34°C° 0 mm 2 mps 733 mmHg 46%
    23:00 +32°C° 0 mm 1 mps 733 mmHg 48%
    Show more